Météo par heure à Paris

Ce jour, 26 Février, Vendredi

Heure Température Précipitation Vent Pression Humidité
00:00 +10°C° 0 mm 3 m/s 769 mmHg 81%
01:00 +9°C° 0.1 mm 3 m/s 769 mmHg 83%
02:00 +9°C° 0.1 mm 3 m/s 769 mmHg 84%
03:00 +9°C° 0.1 mm 3 m/s 769 mmHg 86%
04:00 +9°C° 0.5 mm 3 m/s 769 mmHg 86%
05:00 +9°C° 0.5 mm 3 m/s 769 mmHg 87%
06:00 +8°C° 0 mm 3 m/s 769 mmHg 85%
07:00 +8°C° 0.2 mm 3 m/s 770 mmHg 82%
08:00 +9°C° 0.2 mm 3 m/s 770 mmHg 80%
09:00 +9°C° 0.2 mm 3 m/s 770 mmHg 77%
10:00 +10°C° 0 mm 4 m/s 771 mmHg 71%
11:00 +10°C° 0 mm 4 m/s 771 mmHg 66%
12:00 +11°C° 0 mm 4 m/s 771 mmHg 60%
13:00 +11°C° 0 mm 4 m/s 771 mmHg 57%
14:00 +11°C° 0 mm 4 m/s 771 mmHg 55%
15:00 +12°C° 0 mm 4 m/s 771 mmHg 52%
16:00 +11°C° 0 mm 4 m/s 771 mmHg 56%
17:00 +10°C° 0 mm 4 m/s 771 mmHg 59%
18:00 +9°C° 0 mm 3 m/s 772 mmHg 63%
19:00 +8°C° 0 mm 3 m/s 772 mmHg 64%
20:00 +7°C° 0 mm 3 m/s 772 mmHg 64%
21:00 +7°C° 0 mm 3 m/s 773 mmHg 65%
22:00 +5°C° 0 mm 3 m/s 773 mmHg 67%
23:00 +5°C° 0 mm 3 m/s 773 mmHg 70%

Demain, 27 Février, Samedi

Heure Température Précipitation Vent Pression Humidité
00:00 +4°C° 0 mm 3 m/s 774 mmHg 72%
01:00 +4°C° 0 mm 3 m/s 773 mmHg 73%
02:00 +3°C° 0 mm 3 m/s 773 mmHg 74%
03:00 +3°C° 0 mm 3 m/s 773 mmHg 75%
04:00 +3°C° 0 mm 3 m/s 773 mmHg 76%
05:00 +3°C° 0 mm 3 m/s 773 mmHg 78%
06:00 +3°C° 0 mm 3 m/s 773 mmHg 79%
07:00 +3°C° 0 mm 3 m/s 773 mmHg 76%
08:00 +4°C° 0 mm 3 m/s 774 mmHg 73%
09:00 +5°C° 0 mm 4 m/s 774 mmHg 70%
10:00 +6°C° 0 mm 4 m/s 773 mmHg 65%
11:00 +7°C° 0 mm 4 m/s 773 mmHg 60%
12:00 +9°C° 0 mm 5 m/s 773 mmHg 54%
13:00 +9°C° 0 mm 5 m/s 773 mmHg 54%
14:00 +9°C° 0 mm 5 m/s 772 mmHg 53%
15:00 +10°C° 0 mm 5 m/s 772 mmHg 53%
16:00 +10°C° 0 mm 4 m/s 772 mmHg 57%
17:00 +8°C° 0 mm 4 m/s 772 mmHg 62%
18:00 +7°C° 0 mm 4 m/s 772 mmHg 67%
19:00 +7°C° 0 mm 4 m/s 772 mmHg 68%
20:00 +6°C° 0 mm 4 m/s 772 mmHg 70%
21:00 +6°C° 0 mm 4 m/s 772 mmHg 72%
22:00 +5°C° 0 mm 4 m/s 772 mmHg 74%
23:00 +5°C° 0 mm 4 m/s 772 mmHg 75%

Après-demain, 28 Février, Dimanche

Heure Température Précipitation Vent Pression Humidité
00:00 +5°C° 0 mm 4 m/s 771 mmHg 76%
01:00 +4°C° 0 mm 4 m/s 771 mmHg 78%
02:00 +4°C° 0 mm 4 m/s 771 mmHg 79%
03:00 +4°C° 0 mm 4 m/s 770 mmHg 80%
04:00 +3°C° 0 mm 4 m/s 770 mmHg 80%
05:00 +3°C° 0 mm 4 m/s 770 mmHg 80%
06:00 +3°C° 0 mm 4 m/s 770 mmHg 80%
07:00 +4°C° 0 mm 4 m/s 770 mmHg 76%
08:00 +5°C° 0 mm 5 m/s 769 mmHg 72%
09:00 +6°C° 0 mm 5 m/s 769 mmHg 68%
10:00 +7°C° 0 mm 5 m/s 769 mmHg 64%
11:00 +8°C° 0 mm 5 m/s 769 mmHg 60%
12:00 +9°C° 0 mm 5 m/s 769 mmHg 56%
13:00 +9°C° 0 mm 5 m/s 768 mmHg 54%
14:00 +10°C° 0 mm 5 m/s 768 mmHg 53%
15:00 +10°C° 0 mm 5 m/s 767 mmHg 52%
16:00 +10°C° 0 mm 4 m/s 767 mmHg 55%
17:00 +8°C° 0 mm 4 m/s 767 mmHg 58%
18:00 +8°C° 0 mm 3 m/s 767 mmHg 61%
19:00 +8°C° 0 mm 3 m/s 767 mmHg 62%
20:00 +7°C° 0 mm 3 m/s 767 mmHg 64%
21:00 +7°C° 0 mm 3 m/s 767 mmHg 65%
22:00 +5°C° 0 mm 3 m/s 767 mmHg 68%
23:00 +4°C° 0 mm 3 m/s 767 mmHg 71%

1 Mars, Lundi

Heure Température Précipitation Vent Pression Humidité
00:00 +4°C° 0 mm 3 m/s 767 mmHg 74%
01:00 +5°C° 0 mm 2 m/s 766 mmHg 76%
02:00 +4°C° 0 mm 2 m/s 766 mmHg 78%
03:00 +4°C° 0 mm 2 m/s 766 mmHg 80%
04:00 +3°C° 0 mm 2 m/s 766 mmHg 81%
05:00 +3°C° 0 mm 2 m/s 766 mmHg 82%
06:00 +3°C° 0 mm 2 m/s 765 mmHg 83%
07:00 +4°C° 0 mm 2 m/s 765 mmHg 79%
08:00 +5°C° 0 mm 2 m/s 765 mmHg 75%
09:00 +6°C° 0 mm 2 m/s 765 mmHg 71%
10:00 +7°C° 0 mm 2 m/s 765 mmHg 66%
11:00 +9°C° 0 mm 2 m/s 765 mmHg 61%
12:00 +12°C° 0 mm 2 m/s 765 mmHg 55%
13:00 +12°C° 0 mm 2 m/s 765 mmHg 55%
14:00 +13°C° 0 mm 2 m/s 764 mmHg 55%
15:00 +14°C° 0 mm 2 m/s 764 mmHg 54%
16:00 +12°C° 0 mm 2 m/s 764 mmHg 61%
17:00 +10°C° 0 mm 2 m/s 764 mmHg 67%
18:00 +9°C° 0 mm 2 m/s 764 mmHg 73%
19:00 +9°C° 0 mm 2 m/s 764 mmHg 76%
20:00 +8°C° 0 mm 2 m/s 764 mmHg 78%
21:00 +7°C° 0 mm 2 m/s 764 mmHg 81%
22:00 +7°C° 0 mm 2 m/s 764 mmHg 82%
23:00 +8°C° 0 mm 1 m/s 764 mmHg 84%

2 Mars, Mardi

Heure Température Précipitation Vent Pression Humidité
00:00 +7°C° 0 mm 1 m/s 764 mmHg 85%
01:00 +7°C° 0 mm 1 m/s 763 mmHg 86%
02:00 +7°C° 0 mm 1 m/s 763 mmHg 87%
03:00 +6°C° 0 mm 1 m/s 763 mmHg 89%
04:00 +6°C° 0 mm 1 m/s 763 mmHg 89%
05:00 +6°C° 0 mm 1 m/s 763 mmHg 90%
06:00 +6°C° 0 mm 1 m/s 763 mmHg 91%
07:00 +7°C° 0 mm 1 m/s 764 mmHg 86%
08:00 +7°C° 0 mm 2 m/s 764 mmHg 81%
09:00 +9°C° 0 mm 2 m/s 764 mmHg 76%
10:00 +10°C° 0 mm 3 m/s 764 mmHg 69%
11:00 +12°C° 0 mm 3 m/s 764 mmHg 62%
12:00 +13°C° 0 mm 3 m/s 764 mmHg 55%
13:00 +14°C° 0 mm 3 m/s 764 mmHg 55%
14:00 +14°C° 0 mm 3 m/s 764 mmHg 54%
15:00 +16°C° 0 mm 3 m/s 764 mmHg 53%
16:00 +14°C° 0 mm 3 m/s 764 mmHg 58%
17:00 +14°C° 0 mm 2 m/s 764 mmHg 63%
18:00 +13°C° 0 mm 2 m/s 764 mmHg 67%
19:00 +12°C° 0 mm 2 m/s 764 mmHg 70%
20:00 +12°C° 0 mm 2 m/s 765 mmHg 73%
21:00 +12°C° 0 mm 2 m/s 765 mmHg 75%
22:00 +10°C° 0.4 mm 2 m/s 765 mmHg 78%
23:00 +10°C° 0.4 mm 2 m/s 765 mmHg 81%

3 Mars, Mercredi

Heure Température Précipitation Vent Pression Humidité
00:00 +10°C° 0.4 mm 2 m/s 765 mmHg 83%
01:00 +10°C° 0.6 mm 3 m/s 765 mmHg 83%
02:00 +10°C° 0.6 mm 3 m/s 765 mmHg 83%
03:00 +10°C° 0.6 mm 3 m/s 765 mmHg 83%
04:00 +10°C° 0.2 mm 3 m/s 765 mmHg 84%
05:00 +10°C° 0.2 mm 3 m/s 765 mmHg 85%
06:00 +10°C° 0.2 mm 3 m/s 765 mmHg 86%
07:00 +10°C° 0 mm 3 m/s 766 mmHg 86%
08:00 +10°C° 0 mm 3 m/s 766 mmHg 85%
09:00 +11°C° 0 mm 3 m/s 766 mmHg 84%
10:00 +11°C° 0.1 mm 3 m/s 766 mmHg 77%
11:00 +12°C° 0.1 mm 3 m/s 766 mmHg 70%
12:00 +13°C° 0.1 mm 4 m/s 767 mmHg 64%
13:00 +14°C° 0.1 mm 4 m/s 767 mmHg 62%
14:00 +14°C° 0.1 mm 3 m/s 766 mmHg 61%
15:00 +14°C° 0.1 mm 3 m/s 766 mmHg 59%
16:00 +13°C° 0.1 mm 3 m/s 766 mmHg 64%
17:00 +13°C° 0.1 mm 2 m/s 766 mmHg 70%
18:00 +12°C° 0.1 mm 1 m/s 766 mmHg 75%
19:00 +12°C° 0 mm 1 m/s 767 mmHg 78%
20:00 +11°C° 0 mm 1 m/s 767 mmHg 80%
21:00 +11°C° 0 mm 1 m/s 767 mmHg 83%
22:00 +10°C° 0 mm 1 m/s 767 mmHg 84%
23:00 +10°C° 0 mm 1 m/s 767 mmHg 85%
Voir plus

Nous avons besoin de votre consentement

Meteoprog et ses fournisseurs de services peuvent stocker et accéder à des données personnelles telles que des cookies, des identifiants d'appareils ou d'autres technologies similaires sur votre appareil et traiter ces données pour personnaliser le contenu et les publicités, ainsi que pour fournir des fonctionnalités de médias sociaux et analyser le trafic.

  • Stocker et/ou accéder à des informations sur votre appareil

    Des cookies, des identifiants d'appareils ou d'autres informations peuvent être stockés ou accessibles sur votre appareil aux fins indiquées ci-dessus.

  • Annonces et contenus personnalisés, mesure des annonces et des contenus, connaissance de l'audience et développement de produits

    Les annonces et le contenu peuvent être personnalisés en fonction d'un profil. D'autres données peuvent être ajoutées pour mieux personnaliser les annonces et le contenu. Les performances des publicités et du contenu peuvent être mesurées. Il est possible d'obtenir des informations sur le public qui a vu les publicités et le contenu. Ces données peuvent être utilisées pour développer ou améliorer l'expérience de l'utilisateur, les systèmes et les logiciels.

En cliquant sur "J'accepte", vous autorisez l'utilisation de cookies, des identifiants d'appareils, des balises web ou d'autres technologies similaires. Vos paramètres peuvent être modifiés dans le navigateur de votre appareil.

Dans certains cas, des intérêts légitimes peuvent être invoqués plutôt qu'un consentement. Vous pouvez en savoir plus à ce sujet dans notre Politique de confidentialité et de cookies.